User: anonymous   Login
Location: La Tine
(46.4708°N, 7.0525°E)
Time: 12:54:45
(UTC+00:00)
Language:

Nadezhda 4 Rocket - Orbit

View from above orbital plane
View from above orbital plane
View from above satellite
View from above satellite

Ground track
Ground track

The orbit data is extracted from the following two-line orbital elements,

1 23180U 94041B   20330.82363215 +.00000063 +00000-0 +47634-4 0  9997
2 23180 082.9476 075.1775 0027735 299.3629 172.7695 13.77983142325842
Epoch (UTC): 25 November 2020 19:46:01
Eccentricity: 0.0027735
inclination: 82.9476°
perigee height: 950 km
apogee height: 991 km
right ascension of ascending node: 75.1775°
argument of perigee: 299.3629°
revolutions per day: 13.77983142
mean anomaly at epoch: 172.7695°
orbit number at epoch: 32584

The dashed part of the orbit path shows where the satellite is in the earth's shadow,  

DLR